Theta_e
311 310 310 327 335 337 339 339 334 329 327 325 325 325 324 321 323 331 327 327 335 334 328 324 324 323 324 325 325 327 330 330 332 337 338 336 333 327 326 331 331 330 330 329 329 329 329 334 335
313 315 323 334 341 346 342 337 334 327 326 324 325 325 322 323 325 325 326 329 331 332 332 331 330 326 323 321 324 328 332 334 335 336 338 337 336 333 333 333 333 332 332 331 330 329 329 329 332
321 323 333 337 340 344 342 336 334 326 325 326 326 324 326 325 325 329 327 327 330 329 331 333 335 332 327 322 324 330 334 335 334 335 337 335 335 336 335 335 334 334 333 332 332 330 329 329 331
327 336 334 336 337 335 335 333 330 327 325 324 324 326 326 325 325 328 327 326 327 330 332 334 334 330 329 330 333 336 337 337 335 337 336 334 333 333 333 333 333 333 333 333 333 330 329 330 334
334 334 334 336 337 337 333 334 326 325 324 324 323 325 326 325 326 326 325 325 326 328 331 329 327 325 325 324 326 331 337 337 337 336 335 334 334 333 334 333 332 332 333 332 333 331 331 333 334
333 328 332 333 333 332 330 330 330 327 326 324 323 327 326 324 325 325 325 325 325 325 326 327 328 327 324 323 321 319 321 330 331 330 330 330 332 332 332 331 331 330 330 330 332 332 329 330 332
332 331 333 333 332 331 331 330 330 328 326 324 324 325 326 324 325 325 325 325 326 326 327 326 324 323 323 323 322 321 322 323 324 324 323 323 326 328 328 329 329 329 330 330 331 332 330 328 329
330 329 331 331 331 330 331 330 329 328 327 325 324 324 327 324 325 325 325 325 324 324 324 323 323 323 324 325 324 325 325 325 327 326 326 327 327 326 326 327 328 329 329 330 332 332 330 328 327
331 330 332 331 330 331 326 325 327 327 327 327 323 323 326 326 326 325 325 325 324 324 323 323 323 323 326 326 327 327 325 327 328 327 327 325 324 323 324 325 329 329 330 330 332 332 331 329 328
331 331 331 331 330 330 327 324 324 327 326 327 325 325 327 326 325 323 323 323 323 323 323 322 321 321 322 322 328 328 328 328 328 327 325 324 323 322 324 325 327 328 330 330 331 331 329 329 329
331 331 330 330 330 329 329 324 323 324 327 327 324 324 324 324 323 322 322 323 324 324 322 322 324 325 326 328 328 328 328 327 327 326 324 324 323 323 323 324 325 326 326 327 329 330 330 330 328
332 330 330 329 329 329 328 325 325 324 326 327 324 324 322 322 320 321 322 323 324 323 323 327 328 329 329 330 330 328 329 328 327 326 325 327 325 323 325 326 326 326 326 327 328 328 329 329 327
331 331 330 330 330 327 326 326 326 324 326 326 323 323 323 321 321 323 323 324 324 324 326 328 328 328 330 330 329 329 328 327 327 326 327 327 326 323 325 325 325 325 326 326 327 328 327 326 326
330 329 329 330 330 327 327 328 326 326 327 326 323 322 321 320 322 324 324 324 325 324 326 328 328 330 330 329 329 329 329 330 329 328 327 327 326 325 324 324 324 324 325 326 325 326 327 328 327
324 325 326 327 328 326 327 328 326 326 325 325 323 322 321 321 324 323 325 325 325 324 326 328 328 328 328 328 330 330 329 329 330 329 327 326 325 323 324 324 324 325 324 324 325 325 326 327 327
322 324 327 326 326 327 325 328 326 326 325 325 325 324 324 322 321 324 325 326 325 324 326 328 328 328 327 329 329 330 330 330 331 330 329 326 325 322 323 326 325 325 323 324 324 325 327 328 329
321 323 325 327 327 327 326 327 327 326 325 325 326 326 325 323 324 326 325 326 326 324 327 327 328 328 329 329 328 329 330 331 332 329 328 325 323 318 324 326 325 326 323 324 323 324 325 328 328
322 324 326 327 327 326 327 329 327 327 325 325 325 326 326 327 325 327 327 327 325 325 327 328 328 328 330 327 328 330 331 332 331 329 328 327 322 320 326 327 326 325 324 324 323 325 326 328 330
322 324 326 327 327 326 330 329 329 328 327 326 325 327 327 326 325 327 327 326 325 326 326 328 328 328 329 327 331 331 332 329 329 330 329 328 327 325 326 327 326 325 324 325 324 326 327 328 328
323 323 323 324 326 328 329 329 328 330 328 326 326 325 325 327 326 326 327 326 325 325 326 329 329 329 328 329 332 331 332 331 331 331 330 328 327 326 325 326 326 325 324 324 326 326 328 328 329
324 324 323 324 326 326 327 327 328 329 327 327 326 325 326 327 327 326 327 325 325 325 325 329 329 328 329 331 331 330 330 330 330 330 330 329 327 327 326 327 326 325 326 324 326 327 328 328 330
324 324 324 325 327 327 328 327 327 327 326 326 326 325 327 326 327 326 327 326 325 327 326 328 328 328 330 330 329 331 332 331 330 329 329 329 328 327 327 326 326 326 325 326 327 327 327 328 329
324 324 324 326 326 327 326 326 325 327 327 326 324 324 327 327 327 327 327 327 325 325 325 328 328 328 331 331 330 332 331 331 331 328 329 325 327 327 327 328 327 327 328 326 327 325 327 325 330
324 324 325 326 326 328 328 327 327 327 327 324 323 324 328 327 326 327 328 328 326 327 327 327 328 329 331 332 330 330 329 329 330 329 329 328 328 328 327 327 328 327 327 327 328 325 327 323 329
324 323 325 328 326 327 326 327 326 326 327 323 327 329 328 327 327 328 327 325 326 327 326 328 329 327 327 329 329 330 327 329 329 326 327 328 328 328 327 328 327 327 327 328 327 328 327 327 331
321 323 324 329 331 327 326 328 326 327 325 324 328 329 328 327 327 327 326 324 325 325 327 327 328 326 326 329 329 330 329 326 326 327 327 329 329 328 327 327 327 327 328 329 328 328 329 330 331
322 325 323 325 327 326 326 327 331 325 323 325 330 329 328 327 327 326 325 325 326 325 325 325 329 325 327 328 329 330 330 328 328 326 328 330 329 329 330 329 329 328 329 329 329 330 330 331 331
321 325 326 324 327 328 328 328 329 325 324 330 332 330 329 327 327 326 325 325 326 324 323 324 328 326 326 327 328 330 331 330 330 330 328 329 329 329 330 331 331 330 330 329 329 331 331 330 330
320 326 324 322 322 326 328 329 326 327 332 332 333 331 329 327 326 325 323 326 325 324 323 325 327 325 325 327 327 329 331 331 331 329 327 329 330 328 330 331 331 330 330 329 328 329 329 329 327
322 324 324 325 329 325 326 328 333 333 333 331 333 331 327 325 325 324 324 324 325 325 324 325 327 325 324 325 326 330 331 331 329 328 326 329 329 330 330 329 330 330 330 329 329 327 327 328 329
Wind_Speed
10 10 7 2 1 2 5 9 5 6 5 4 7 7 5 6 5 4 16 13 16 21 20 17 13 11 11 11 11 10 10 9 8 9 9 10 10 11 12 10 8 7 8 9 10 11 12 11 9
12 9 3 3 2 2 5 11 11 4 6 8 6 6 9 3 6 10 12 15 16 16 15 14 12 11 11 10 12 11 11 11 10 10 11 11 12 13 13 12 12 11 10 10 11 12 13 12 11
10 12 2 4 4 7 4 8 14 6 7 5 4 6 6 8 8 12 19 17 14 10 16 15 14 12 11 9 11 12 11 12 12 13 11 12 13 15 16 15 15 15 14 13 13 13 13 14 12
4 4 3 2 10 13 2 8 4 4 5 6 6 7 5 12 8 18 19 14 13 14 17 14 12 9 8 8 9 10 12 14 13 13 13 14 14 16 17 16 18 17 17 17 16 14 14 13 13
5 3 4 5 11 15 6 10 3 5 6 3 7 6 7 7 24 23 17 12 12 15 17 14 10 8 5 7 9 11 14 14 14 14 13 14 15 16 16 16 17 18 18 18 19 17 15 13 12
3 1 3 6 13 7 6 5 8 3 5 4 7 8 6 18 21 19 17 14 12 13 11 10 7 3 7 10 9 10 12 15 16 16 16 15 15 16 17 18 19 21 21 20 20 20 19 16 13
6 3 7 14 16 15 13 5 4 6 3 3 4 3 5 10 20 21 19 18 13 10 9 6 8 10 10 11 11 11 10 11 13 14 15 16 16 17 19 19 20 22 22 22 22 22 21 19 16
4 3 11 13 12 13 13 5 6 8 7 10 10 5 6 8 24 20 20 15 11 14 13 13 11 9 8 9 8 9 10 9 10 8 7 8 10 12 16 16 18 19 21 21 21 21 21 21 18
13 5 12 17 16 17 10 7 7 6 4 3 8 7 12 29 24 20 20 20 17 20 17 17 14 10 8 2 6 9 8 11 9 7 8 13 14 12 13 14 14 19 19 20 19 21 20 19 18
11 8 21 16 18 18 10 8 8 7 9 5 5 9 23 29 26 19 14 14 22 21 17 15 11 6 5 9 6 7 7 8 10 12 15 13 12 12 14 14 13 11 15 20 18 20 19 18 17
17 17 18 17 22 20 14 9 8 11 7 3 10 11 11 10 15 15 17 18 19 20 15 7 1 3 7 7 8 8 12 14 11 13 11 11 11 10 9 9 12 14 12 14 17 18 20 20 18
18 21 22 23 22 19 10 7 9 14 9 5 8 15 9 9 10 12 13 21 18 16 11 9 4 1 4 4 9 7 7 7 12 15 13 14 13 10 9 11 10 11 14 14 17 20 20 19 17
22 23 23 23 22 10 7 9 15 19 7 1 10 11 12 11 10 20 16 21 20 17 12 7 3 3 5 7 6 9 15 18 19 15 15 16 17 11 11 9 9 10 12 15 19 21 21 19 20
21 19 21 23 20 8 10 17 17 12 6 7 8 9 10 11 12 11 20 20 18 16 10 6 2 5 5 6 10 13 13 15 15 16 16 14 14 12 12 11 11 11 13 15 18 24 23 23 19
17 22 24 22 14 15 14 18 16 10 8 10 10 10 10 10 20 18 25 22 20 15 11 6 5 7 7 7 10 11 13 14 16 15 14 12 14 14 13 13 12 12 12 14 18 19 20 21 19
17 17 18 12 11 20 13 21 15 11 9 10 11 10 9 11 17 25 31 25 21 16 10 8 4 3 5 6 11 13 12 12 14 13 11 12 14 13 12 12 12 11 13 16 20 20 16 16 15
11 15 16 17 18 22 12 19 16 11 9 9 11 8 9 10 6 24 31 28 22 16 12 6 6 4 5 10 12 14 12 10 11 10 10 11 12 12 11 12 10 9 10 18 21 21 19 18 18
13 11 14 18 23 18 14 14 10 11 11 12 9 10 9 9 14 25 32 29 24 18 11 7 5 3 6 9 11 5 7 7 9 8 10 10 9 10 9 11 8 8 10 16 20 20 19 18 16
14 14 20 23 21 21 4 22 13 10 8 8 10 9 10 10 10 26 31 29 24 19 13 8 8 5 6 8 8 6 7 5 4 5 7 7 8 8 10 9 8 10 12 16 18 16 13 17 18
18 19 23 23 20 5 18 22 16 9 7 9 11 10 6 11 13 14 24 27 24 20 14 10 8 6 4 6 7 6 7 10 9 7 6 6 4 7 11 8 8 12 12 13 15 16 12 16 16
21 20 21 19 21 17 5 6 6 5 5 7 10 8 16 21 17 14 15 25 24 18 14 12 9 4 2 4 6 5 10 12 7 4 4 3 2 4 7 5 8 11 13 14 15 17 13 8 14
21 19 22 22 17 8 1 6 4 6 10 10 12 10 16 18 16 14 13 16 23 17 16 11 10 3 3 3 7 8 8 8 11 3 5 4 3 3 7 9 10 9 8 14 16 16 15 17 11
22 16 20 22 16 7 5 2 5 4 9 14 5 11 16 18 18 16 14 20 22 18 17 15 9 6 3 0 6 7 11 12 8 4 6 3 2 5 7 11 9 9 6 13 17 15 19 17 18
24 16 17 16 9 3 6 6 9 6 7 6 4 7 15 15 14 13 19 26 22 19 19 14 12 9 4 5 5 8 10 12 8 6 5 5 1 6 11 13 9 9 6 12 15 13 19 19 19
20 14 9 3 1 6 5 4 10 10 8 7 9 13 13 15 16 15 14 12 19 24 20 15 14 9 4 7 5 6 8 8 7 7 6 7 5 9 12 12 11 11 10 11 14 16 17 17 17
18 15 7 7 4 5 8 8 14 15 10 10 14 14 14 14 14 13 13 14 20 21 21 16 16 13 5 8 5 5 6 6 6 4 6 7 7 10 11 12 13 10 11 12 13 17 20 20 24
16 13 13 5 1 2 5 7 3 9 8 11 16 16 13 13 12 12 12 18 22 22 20 13 17 13 12 9 5 3 4 4 3 3 8 8 11 10 9 12 12 13 13 13 16 20 22 23 26
24 6 6 1 8 5 5 6 5 8 9 12 13 12 10 9 12 11 11 16 24 23 20 11 14 14 13 7 8 6 5 5 3 4 7 11 10 9 11 13 15 17 17 20 23 24 26 26 26
13 10 4 7 6 5 2 7 8 7 14 14 14 13 14 14 12 11 9 19 26 23 20 13 13 14 14 9 9 7 6 8 6 9 9 10 11 12 14 14 19 21 24 25 26 24 25 25 23
15 9 7 9 5 5 6 6 8 13 12 13 15 13 11 12 11 11 11 18 24 24 21 16 12 17 14 12 10 9 10 8 10 11 9 10 15 15 15 18 19 24 24 25 28 28 27 27 24
Wind_Direction
190 181 184 250 14 152 256 277 306 56 59 81 87 93 84 96 93 180 140 112 139 160 169 172 183 192 201 210 218 221 224 230 237 235 237 236 246 267 270 278 280 277 272 267 260 257 258 270 271
182 172 221 267 181 300 293 307 287 42 151 121 131 137 93 59 98 127 124 144 152 156 176 183 189 199 205 216 221 226 232 239 244 243 243 245 246 249 258 264 267 266 264 258 255 253 252 256 265
180 216 307 193 215 227 257 263 328 22 15 130 153 99 105 140 114 139 140 142 146 177 192 192 196 197 206 226 228 231 240 247 243 245 242 249 252 253 252 252 259 260 263 261 258 251 251 254 257
212 265 286 261 254 269 153 287 242 18 347 174 137 111 58 148 118 142 154 157 186 188 193 180 187 192 216 232 242 250 249 245 246 249 252 253 252 253 256 256 258 258 258 257 254 249 244 248 255
242 262 230 262 268 268 279 231 102 22 320 356 135 113 108 100 128 143 150 157 129 127 161 163 171 183 209 250 255 248 247 247 246 249 251 249 248 250 253 254 257 258 254 255 251 242 239 238 249
286 157 305 275 283 311 280 54 355 8 297 29 37 109 172 140 141 151 161 161 147 124 131 150 156 231 283 279 272 259 259 255 259 262 260 256 255 256 256 256 254 254 254 251 249 238 232 235 241
229 289 264 279 291 308 308 72 193 243 216 112 116 93 146 156 158 161 158 156 139 135 155 196 237 263 262 252 242 236 244 261 277 282 280 273 268 265 264 263 259 255 251 251 243 233 224 230 237
222 241 278 278 287 289 294 223 201 231 196 166 144 156 180 207 161 156 161 169 175 190 197 208 217 225 236 222 235 241 239 266 276 287 286 284 277 276 269 265 261 252 248 247 239 227 222 227 235
249 250 262 267 274 278 317 355 329 336 142 203 177 152 154 159 161 158 167 177 185 190 193 187 160 147 135 121 262 268 273 287 265 257 248 274 270 273 272 266 276 257 246 240 232 221 219 226 233
229 236 249 259 269 279 301 330 329 351 312 261 98 94 142 158 164 166 179 184 200 185 173 160 177 190 255 303 311 259 278 263 241 256 297 284 287 268 271 271 276 272 253 235 223 216 213 220 226
240 241 251 254 259 274 287 324 309 304 297 304 162 155 160 155 167 185 192 197 138 134 131 125 84 307 307 309 268 288 296 272 253 296 298 286 284 284 301 279 281 266 260 234 214 208 212 215 223
245 245 249 255 259 255 263 294 294 278 251 249 147 163 156 167 184 188 195 145 144 136 126 121 119 167 299 267 284 274 293 278 288 298 287 276 280 277 283 285 271 265 251 230 217 205 210 213 222
242 246 253 261 266 251 273 264 262 269 267 142 147 146 172 179 186 197 191 145 134 128 127 127 165 277 252 297 290 276 277 280 287 281 278 278 267 272 275 273 274 265 250 233 209 209 214 222 219
248 257 255 256 268 251 260 265 263 252 249 201 157 163 172 179 189 159 146 142 137 134 133 149 208 225 272 272 275 285 282 290 286 279 277 286 263 261 272 267 266 261 235 232 221 218 214 219 227
265 268 272 270 267 267 253 253 256 251 220 213 197 203 204 195 157 167 159 151 145 142 149 172 253 251 239 286 284 281 293 290 288 284 272 264 243 256 266 270 264 270 236 226 220 220 219 225 233
279 273 263 257 270 267 254 259 245 233 218 237 225 219 190 196 180 172 160 147 143 137 165 174 201 165 257 262 292 285 291 299 293 282 270 265 259 253 269 263 258 261 233 218 215 214 215 218 219
255 258 262 269 246 262 243 253 257 202 214 248 227 218 212 205 129 151 155 152 150 152 145 170 185 255 255 290 298 294 295 301 295 298 287 275 262 254 255 261 260 256 233 207 211 213 212 219 204
234 255 252 258 258 256 265 310 202 204 203 228 240 218 216 151 162 147 149 147 145 148 161 173 230 236 259 302 315 310 308 308 301 317 309 290 267 249 243 258 250 233 205 202 206 215 211 217 199
238 243 246 254 255 249 344 269 254 208 219 226 235 234 231 164 144 139 145 146 145 145 158 180 215 220 268 304 315 342 318 308 278 305 323 303 285 250 225 250 237 216 203 195 201 209 215 219 194
227 245 259 272 277 229 209 248 249 208 215 219 229 246 209 121 130 133 139 145 149 148 159 188 204 220 276 312 331 328 332 320 288 284 307 303 282 251 213 236 227 204 194 192 197 202 207 204 181
238 231 250 259 277 285 284 320 313 265 249 275 250 221 138 145 148 150 145 147 151 154 169 183 199 183 299 338 3 360 343 343 336 302 347 310 261 202 186 197 191 190 188 182 195 189 188 184 183
239 222 236 250 260 260 337 283 302 302 299 295 275 129 143 152 154 150 147 145 153 159 166 186 163 182 195 1 8 25 9 341 341 312 17 118 135 188 183 166 177 185 170 160 155 167 177 173 175
240 222 230 240 249 239 282 286 251 269 289 291 187 151 155 158 152 155 146 146 156 165 171 160 166 169 175 193 21 19 359 351 355 64 69 83 133 171 171 164 166 172 174 158 151 151 171 186 183
230 232 239 240 231 236 222 180 269 234 234 210 142 144 148 139 137 132 141 149 159 168 159 160 171 166 195 168 52 39 18 23 65 76 72 52 148 164 174 166 165 167 154 162 163 163 169 158 162
219 220 238 288 230 220 218 280 248 264 229 171 131 118 126 131 136 140 145 147 155 157 161 169 169 165 199 128 65 58 35 60 63 52 43 28 95 152 162 170 168 165 166 168 165 176 172 175 169
223 203 200 209 182 244 252 243 249 236 209 119 137 129 123 129 140 142 141 146 153 161 163 176 175 162 168 123 102 73 45 78 76 59 43 61 97 145 155 170 174 164 166 167 165 162 162 164 160
231 207 190 167 257 197 235 277 22 144 138 121 129 130 134 136 140 142 144 151 157 162 167 185 169 164 149 129 139 128 84 88 86 83 42 73 113 127 143 150 157 166 167 159 152 148 144 139 142
212 178 152 74 201 246 294 299 234 156 178 115 129 133 136 138 139 145 146 151 162 166 167 177 161 157 148 151 164 152 116 72 44 66 51 101 115 127 142 146 145 144 148 146 141 134 136 133 139
220 203 143 133 148 170 225 270 211 161 136 133 143 146 148 150 145 148 147 153 162 163 163 166 156 156 145 130 131 127 126 108 81 83 74 107 109 116 124 142 140 138 143 146 143 133 141 138 134
212 171 150 180 212 205 178 264 133 147 149 136 146 148 147 151 145 149 147 146 153 162 165 169 178 160 153 156 139 130 123 101 103 91 85 112 109 109 111 131 139 143 139 142 142 138 136 134 139